User: anonymous   Login
Location: Unspecified
(0.0000°N, 0.0000°E)
Time: 15:49:03
(UTC+00:00)
Language:

USA 247 - Orbit

View from above orbital plane
View from above orbital plane
View from above satellite
View from above satellite

Ground track
Ground track

The orbit data is extracted from the following two-line orbital elements,

1 39462U 13072A   14292.07870311 0.00000000  00000-0  00000-0 0    05
2 39462 123.0062 128.5615 0005999 101.5993 258.4007 13.41432891    00
Epoch (UTC): 19 October 2014 01:53:19
Eccentricity: 0.0005999
inclination: 123.0062°
perigee height: 1099 km
apogee height: 1108 km
right ascension of ascending node: 128.5615°
argument of perigee: 101.5993°
revolutions per day: 13.41432891
mean anomaly at epoch: 258.4007°
orbit number at epoch: 0

The dashed part of the orbit path shows where the satellite is in the earth's shadow,  

DLR